Starlink 32414

operational
NORAD ID: 61667 Int'l Des: 2024-193 Owner: SPXS Country: US Constellation: starlink
LEOCIRCULAR

About Starlink 32414

Description loading...

Live Position

Loading 3D Globe...

Upcoming Passes

Altitude History

Altitude vs Time

uPlot chart will show altitude changes over time

Two-Line Element Set

1 61667U 24193G 25304.49612044 -.00000385 00000-0 -88279-6 0 9997
2 61667 53.1613 331.3050 0001377 80.4127 279.7029 15.30189094 56740
Epoch: Oct 31, 2025 • Age: 26 hours

Current Status

Altitude 479.8 km
Velocity 7.63 km/s
Sub-Earth Point 48.02°N, 152.76°W
Launch Date Oct 26, 2024
Age 1 years
Type internet

Technical Details

Classification Payload
Mass 730.00 kg
Dry Mass 700.00 kg
Total Mass 730.00 kg
Length 0.30 m
Diameter 4.10 m
Span 29.00 m
Shape Box + pan
Manufacturer SPXS
Bus Type Starlink V2M
Phase Status In Orbit
Owner/State SPXS/US

Large Constellations

Loading constellations...